IRIDIUM 33 DEB

Satellite information

Favourite Embed

Satellite Type and Status

DEBRISIN ORBIT

Key statistics

Satellite IRIDIUM 33 DEB at a glance.

Uptime

10099

Days in orbit

Revolutions

≈ 14.4

Per day

Orbit

LEO

Low Earth Orbit

Inclination

86.3

Latest

Satellite identification and parameters

Extended collection of information and parameters for IRIDIUM 33 DEB.

Object identification

Identified? True

Debris? True

Object name: IRIDIUM 33 DEB

International designator: 1997-051ACG

Object number (NORAD): 46974

Object ID (CCSDS): 46974

Country: UNITED STATES OF AMERICA (US)

Current information (Y/N): Y

RCS size: SMALL

Orbital parameters

Period: 100.029 minutes

Inclination: 86.3071 deg

SMA: 7137.999 km

Apoapsis: 833.46 km

Periapsis: 686.268 km

RAAN: 200.1826 deg

Eccentricy: 0.0103105

Argument of periapsis: 184.9542 deg

Mean anomaly: 175.0647 deg

Mean motion: 14.39587362 rev/day

Mean motion (dot): 0.00008759 rev/day2

B* drag term: 0.0026282 1/REarth

Two-line elements (TLE)

Creation date: May 8, 2025, 6:36 a.m.

Reference frame: TEME

Reference center: EARTH

Epoch: May 7, 2025, 10:10 p.m. UTC

TLE line 0: 0 IRIDIUM 33 DEB

TLE line 1: 1 46974U 97051ACG 25127.92373264 .00008759 00000-0 26282-2 0 9996

TLE line 2: 2 46974 86.3071 200.1826 0103105 184.9542 175.0647 14.39587362543560

Live tracking on map

Real-time ground track for satellite IRIDIUM 33 DEB.

In-orbit conjunctions

A list of the most updated potential collisions computed for object IRIDIUM 33 DEB.

Target Orbit TCA Probability of collision Miss distance Type
CZ-6A DEB SSO 2024-11-10 18:37:44 0.0001424428 199.0 (m) DEBRIS

Associated space launch

Iridium provides global mobile telecommunications services using a constellation of 66 low earth orbit satellites in a 86.4° inclined orbit. Although 77 satellites were originally envisioned for the system and spawned the name based on the 77th element in the periodic table, the system has been scaled back. Motorola's Satellite Communications Group designed and manufactured the Iridium satellites with Lockheed Martin providing the LM-700A spacecraft buses.

IRIDIUM 33 DEB was lifted into orbit during the mission ‘Proton-K/17S40 | Iridium 27 to 33’, on board a Proton-K/17S40 space rocket.

The launch took place on Sept. 14, 1997, 1:36 a.m. from 81/23 (81L).

For more information about the launch, click the button.

Launch to space Proton-K/17S40 | Iridium 27 to 33
Proton-K/17S40 | Iridium 27 to 33

Agency: N/A

Status: Launch Successful

Launch date: Sept. 14, 1997, 1:36 a.m. UTC

Rocket: Proton-K/17S40

Launch pad: 81/23 (81L)

Location: Baikonur Cosmodrome, Republic of Kazakhstan

...

Latest news about this satellite

There are no fresh news available about this satellite. Check back as we update our databases every day.


Newsletter sign-up

Weekly statistics, charts and insights to help you stay on top of the space industry.